Zurück zum Katalog

ONEWEB-0018

AktivKommunikationPO
NORAD 45434·PAYLOAD·🇬🇧 United Kingdom

Gestartet Mar 21, 2020 von Baikonur Cosmodrome

Loading…

Nächste Überflüge (nächste 24 Stunden)

TLE

AktuellSource: CelesTrak SupGP

Epoche: Sep 14, 2026, 23:08 UTC

1 45434C 20020L   26257.96406667 -.00002860  00000+0 -80793-2 0  2573
2 45434  87.8974   3.2190 0002134  95.1142   5.4911 13.11420614    16

Verfolge ONEWEB-0018 in Echtzeit mit AllMySat

Download on the App Store